Погода в Копорье

Россия / Санкт-Петербург и Ленинградская область     59°42′15″N   29°02′55″E
темп.,
°C
ветер,
м/с
пор.,
м/с
влажн.,
%
обл.,
%
осадки,
мм/ч
давл.,
гПа
погр.,
м
4 августа, ср
ср400:00+13з367613 0.1 1008454
03:00+11юз36855 0.1 1010268
06:00+12зюз24775 0.0 1011311
09:00+16з45594 0.1 10121160
12:00+18з554915 0.2 10141759
15:00+18зсз56435 0.2 10141739
18:00+18зсз45410 0.0 10151142
21:00+13зюз23714 0.0 1016151
5 августа, чт
чт500:00+11ююз22785 0.0 101748
03:00+10ю22785 0.0 101750
06:00+10ю22695 0.0 101745
09:00+17ююв124932 0.0 1017352
12:00+20вюв023857 0.0 10171887
15:00+17с2357100 0.0 1017260
18:00+19св234718 0.0 1017621
21:00+14всв227259 0.0 101733
6 августа, пт
пт600:00+13в247453 0.0 101789
03:00+12в367444 0.0 1017132
06:00+13в267069 0.0 1018158
09:00+17св47554 0.0 1017440
12:00+20всв464033 0.0 10172025
15:00+20св564398 0.0 10161841
18:00+20всв47455 0.0 10161658
21:00+16всв411645 0.0 1017407
7 августа, сб
сб700:00+13в4127771 0.0 1017379
03:00+13в514714 0.0 1017760
06:00+13всв6147495 0.0 1017940
09:00+15всв71465100 0.0 1016906
12:00+18в71060100 0.0 10161171
15:00+14в61389100 0.4 1016827
18:00+16всв61381100 0.1 10151040
21:00+16в71482100 0.5 1014959
8 августа, вс
вс800:00+15в61389100 0.9 1014732
03:00+15всв51285100 1.4 1013718
06:00+14всв51295100 0.8 1012694
09:00+14всв51096100 1.5 1012647
12:00+14в4997100 0.6 1012554
15:00+15вюв3897100 1.1 1012475
18:00+16в3695100 0.3 1013368
21:00+15в369780 0.3 1014236